Weather History for Nuiqsut, AK

Change the Weather History Date:

Monday, December 31, 2012

  Actual Average (PAKU) Record (PAKU)
Temperature  
Mean Temperature -8 °F -  
Max Temperature -7 °F -3 °F 24 °F (1992)
Min Temperature -9 °F -12 °F -40 °F (1983)
Degree Days  
Heating Degree Days 73    
Moisture  
Dew Point -11 °F    
Average Humidity 84    
Maximum Humidity 92    
Minimum Humidity 77    
Precipitation  
Precipitation 0.00 in - - ()
Sea Level Pressure  
Sea Level Pressure 29.98 in    
Wind  
Wind Speed 18 mph (NE)    
Max Wind Speed 22 mph    
Max Gust Speed 29 mph    
Visibility 5 miles    
Events Snow    
Averages and records for this station are not official NWS values.
T = Trace of Precipitation, MM = Missing Value Source: NWS Daily Summary

Daily Weather History Graph

Daily Weather History Graph

Search for Another Location

Airport:

Trip Planner

Search our weather history database for the weather conditions in past years. The results will help you decide how hot, cold, wet, or windy it might be!

Date:

Astronomy

Dec. 31, 1969 Rise Set
Actual Time Sun does not rise Sun does not rise
Civil Twilight 10:58 AM AKST 3:16 PM AKST
Nautical Twilight 9:10 AM AKST 5:04 PM AKST
Astronomical Twilight 7:50 AM AKST 6:24 PM AKST
Moon 8:15 PM AKST (12/31) 11:39 AM AKST (12/31)
Length of Visible Light 4h 18m
Length of Day
0h 00m
Waning Gibbous, 89% of the Moon is Illuminated
Dec 31
Waning Gibbous
Jan 4
Last Quarter
Jan 11
New
Jan 18
First Quarter
Jan 26
Full

Hourly Weather History & Observations

Time (AKST) Temp. Windchill Dew Point Humidity Pressure Visibility Wind Dir Wind Speed Gust Speed Precip Events Conditions
12:49 AM -9.4 °F -35.2 °F -14.8 °F 77% 29.86 in 2.0 mi NE 21.9 mph - N/A   Haze
12:53 AM -9.0 °F -33.6 °F -13.0 °F 83% 29.86 in 2.0 mi NE 19.6 mph - N/A   Overcast
1:18 AM -9.4 °F -34.7 °F -13.0 °F 84% 29.86 in 3.0 mi NE 20.7 mph 26.5 mph N/A   Overcast
1:53 AM -9.0 °F -33.0 °F -13.0 °F 83% 29.87 in 2.5 mi NNE 18.4 mph - N/A   Overcast
2:25 AM -7.6 °F -32.9 °F -11.2 °F 84% 29.87 in 3.0 mi NE 21.9 mph 28.8 mph N/A   Overcast
3:05 AM -7.6 °F -32.9 °F -11.2 °F 84% 29.87 in 2.0 mi NE 21.9 mph - N/A   Overcast
3:53 AM -8.0 °F -32.8 °F -11.9 °F 83% 29.88 in 2.0 mi NE 20.7 mph - N/A   Overcast
4:05 AM -7.6 °F -32.3 °F -11.2 °F 84% 29.88 in 1.5 mi NE 20.7 mph - 0.00 in Snow Light Snow
4:53 AM -8.0 °F -31.0 °F -11.0 °F 86% 29.90 in 1.2 mi NE 17.3 mph - 0.00 in Snow Light Snow
5:13 AM -7.6 °F -31.1 °F -11.2 °F 84% 29.89 in 1.5 mi NE 18.4 mph - 0.00 in Snow Light Snow
5:53 AM -7.1 °F -30.4 °F -11.0 °F 83% 29.90 in 1.5 mi NE 18.4 mph - 0.00 in Snow Light Snow
6:53 AM -7.1 °F -29.8 °F -11.0 °F 83% 29.92 in 1.5 mi NE 17.3 mph - 0.00 in Snow Light Snow
7:13 AM -7.6 °F -31.1 °F -11.2 °F 84% 29.92 in 1.8 mi NE 18.4 mph - 0.00 in Snow Light Snow
7:21 AM -7.6 °F -31.1 °F -11.2 °F 84% 29.92 in 2.0 mi NE 18.4 mph - 0.00 in Snow Light Snow
7:53 AM -7.1 °F -29.8 °F -11.0 °F 83% 29.94 in 3.0 mi NE 17.3 mph 24.2 mph 0.00 in   Overcast
8:53 AM -7.1 °F -29.8 °F -11.0 °F 83% 29.96 in 4.0 mi NE 17.3 mph - 0.00 in Snow Light Snow
9:05 AM -7.6 °F -31.1 °F -11.2 °F 84% 29.96 in 2.5 mi NE 18.4 mph - 0.00 in Snow Light Snow
9:53 AM -8.0 °F -28.8 °F -11.9 °F 83% 29.98 in 2.5 mi NE 13.8 mph - 0.00 in Snow Light Snow
10:02 AM -7.6 °F -29.8 °F -11.2 °F 84% 29.98 in 3.0 mi NE 16.1 mph - 0.00 in Snow Light Snow
10:21 AM -9.4 °F -31.4 °F -13.0 °F 84% 29.99 in 5.0 mi NE 15.0 mph - 0.00 in   Overcast
10:45 AM -9.4 °F -31.4 °F -11.2 °F 92% 30.00 in 7.0 mi NE 15.0 mph - 0.00 in   Overcast
10:53 AM -8.0 °F -29.6 °F -11.9 °F 83% 30.00 in 8.0 mi NE 15.0 mph - 0.00 in   Overcast
11:53 AM -8.0 °F -30.3 °F -11.9 °F 83% 30.02 in 10.0 mi NE 16.1 mph - N/A   Overcast
12:53 PM -9.0 °F -28.4 °F -11.9 °F 87% 30.04 in 10.0 mi NE 11.5 mph - N/A   Overcast
1:53 PM -8.0 °F -27.1 °F -11.9 °F 83% 30.06 in 10.0 mi NE 11.5 mph - N/A   Overcast
2:53 PM -8.0 °F -29.6 °F -11.0 °F 86% 30.07 in 10.0 mi NE 15.0 mph - N/A   Overcast
3:53 PM -7.1 °F -30.4 °F -11.0 °F 83% 30.08 in 10.0 mi ENE 18.4 mph - N/A   Overcast
4:53 PM -7.1 °F -29.1 °F -11.0 °F 83% 30.10 in 7.0 mi ENE 16.1 mph - N/A   Unknown
5:37 PM -7.6 °F -30.5 °F -9.4 °F 92% 30.09 in 2.5 mi ENE 17.3 mph - 0.00 in Snow Light Snow
6:53 PM -7.1 °F -29.8 °F -9.9 °F 87% 30.09 in 8.0 mi ENE 17.3 mph - 0.00 in   Mostly Cloudy
7:53 PM -7.1 °F -29.1 °F -9.9 °F 87% 30.09 in 9.0 mi ENE 16.1 mph - N/A   Overcast
8:53 PM -7.1 °F -28.4 °F -9.9 °F 87% 30.10 in 10.0 mi ENE 15.0 mph - N/A   Mostly Cloudy
9:53 PM -7.1 °F -28.4 °F -11.0 °F 83% 30.12 in 10.0 mi ENE 15.0 mph - N/A   Mostly Cloudy
10:53 PM -8.0 °F -28.8 °F -11.0 °F 86% 30.13 in 10.0 mi NE 13.8 mph - N/A   Mostly Cloudy
11:53 PM -7.1 °F -29.8 °F -11.0 °F 83% 30.12 in 4.0 mi NE 17.3 mph 26.5 mph N/A   Overcast